SCP
0 0 0 0 0 0 0 0 0 0 0 0 0 0 0 0 0 0 0 0 0 0 0 0 0 1 1 1 1 0 0 0 0 0 0 0 0 0 0 0 0 0 0 0
0 0 0 0 0 0 0 0 0 0 0 0 0 0 0 0 0 0 0 0 0 0 0 0 0 0 1 1 1 0 0 0 0 0 0 0 0 0 0 0 0 0 0 0
0 0 0 0 0 0 0 0 0 0 0 0 0 0 0 0 0 0 0 0 0 0 0 0 0 0 0 0 0 0 0 0 0 0 0 0 0 0 0 0 0 0 0 0
0 0 0 0 0 0 0 0 0 0 0 0 0 0 0 0 0 0 0 0 0 0 0 0 0 0 0 0 0 0 0 0 0 0 0 0 0 0 0 0 0 0 0 0
0 0 0 0 0 0 0 0 0 0 0 0 0 0 0 0 0 0 0 0 0 0 0 0 0 0 0 0 0 0 0 0 0 0 0 0 0 0 0 0 0 0 0 0
0 0 0 0 0 0 0 0 0 0 0 0 0 0 0 0 0 0 0 0 0 0 0 0 0 0 0 0 0 0 0 0 0 0 0 0 0 0 0 0 0 0 0 0
0 0 0 0 0 0 0 0 0 0 0 0 0 0 0 0 0 0 0 0 0 0 0 0 0 0 0 0 0 0 0 0 0 0 0 0 0 0 0 0 0 0 0 0
0 0 0 0 0 0 0 0 0 0 0 0 0 0 0 0 0 0 0 0 0 0 0 0 0 0 0 0 0 0 0 0 0 0 0 0 0 0 0 0 0 0 0 0
0 0 0 0 0 0 0 0 0 0 0 0 0 0 0 0 0 0 0 0 0 0 0 0 0 0 0 0 0 0 0 0 0 0 0 0 0 0 0 0 0 0 0 0
0 0 0 0 0 0 0 0 0 0 0 0 0 0 0 0 0 0 0 0 0 0 0 0 0 0 0 0 0 0 0 0 0 0 0 0 0 0 0 0 0 0 0 0
0 0 0 0 0 0 0 0 0 0 0 0 0 0 0 0 0 0 0 0 0 0 0 0 0 0 0 0 0 0 0 0 0 0 0 0 0 0 0 0 0 0 0 0
0 0 0 0 0 0 0 0 0 0 0 0 0 0 0 0 0 0 0 0 0 0 0 0 0 0 0 0 0 0 0 0 0 0 0 0 0 0 0 0 0 0 0 0
0 0 0 0 0 0 0 0 0 0 0 0 0 0 0 0 0 0 0 0 0 0 0 0 0 0 0 0 0 0 0 0 0 0 0 0 0 0 0 0 0 0 0 0
0 0 0 0 0 0 0 0 0 0 0 0 0 0 0 0 0 0 0 0 0 0 0 0 0 0 0 0 0 0 0 0 0 0 0 0 0 0 0 0 0 0 0 0
0 0 0 0 0 0 0 0 0 0 0 0 0 0 0 0 0 0 0 0 0 0 0 0 0 0 0 0 0 0 0 0 0 0 0 0 0 0 0 0 0 0 0 0
0 0 0 0 0 0 0 0 0 0 0 0 0 0 0 0 0 0 0 0 0 0 0 0 0 0 0 0 0 0 0 0 0 0 0 0 0 0 0 0 0 0 0 0
0 0 0 0 0 0 0 0 0 0 0 0 0 0 0 0 0 0 0 0 0 0 0 0 0 0 0 0 0 0 0 0 0 0 0 0 0 0 0 0 0 0 0 0
0 0 0 0 0 0 0 0 0 0 0 0 0 0 0 0 0 0 0 0 0 0 0 0 0 0 0 0 0 0 0 0 0 0 0 0 0 0 0 0 0 0 0 0
0 0 0 0 0 0 0 0 0 0 0 0 0 0 0 0 0 0 0 0 0 0 0 0 0 0 0 0 0 0 0 0 0 0 0 0 0 0 0 0 0 0 0 0
0 0 0 0 0 0 0 0 0 0 0 0 0 0 0 0 0 0 0 0 0 0 0 0 0 0 0 0 0 0 0 0 0 0 0 0 0 0 0 0 0 0 0 0
0 0 0 0 0 0 0 0 0 0 0 0 0 0 0 0 0 0 0 0 0 0 0 0 0 0 0 0 0 0 0 0 0 0 0 0 0 0 0 0 0 0 0 0
0 0 0 0 0 0 0 0 0 0 0 0 0 0 0 0 0 0 0 0 0 0 0 0 0 0 0 0 0 0 0 0 0 0 0 0 0 0 0 0 0 0 0 0
0 0 0 0 0 0 0 0 0 0 0 0 0 0 0 0 0 0 0 0 0 0 0 0 0 0 0 0 0 0 0 0 0 0 0 0 0 0 0 0 0 0 0 0
0 0 0 0 0 0 0 0 0 0 0 0 0 0 0 0 0 0 0 0 0 0 0 0 0 0 0 0 0 0 0 0 0 0 0 0 0 0 0 0 0 0 0 0
0 0 0 0 0 0 0 0 0 0 0 0 0 0 0 0 0 0 0 0 0 0 0 0 0 0 0 0 0 0 0 0 0 0 0 0 0 0 0 0 0 0 0 0
0 0 0 0 0 0 0 0 0 0 0 0 0 0 0 0 0 0 0 0 0 0 0 0 0 0 0 0 0 0 0 0 0 0 0 0 0 0 0 0 0 0 0 0
0 0 0 0 0 0 0 0 0 0 0 0 0 0 0 0 0 0 0 0 0 0 0 0 0 0 0 0 0 0 0 0 0 0 0 0 0 0 0 0 0 0 0 0
Wind_Speed
4 5 3 5 5 4 5 5 6 6 6 8 6 5 4 3 2 2 1 0 0 1 1 2 3 3 4 4 4 4 4 4 4 4 4 4 4 4 4 4 4 3 2 2
4 3 3 5 6 5 5 4 5 5 8 6 4 2 3 3 3 3 2 2 1 0 1 1 2 2 3 3 3 3 3 3 3 4 4 5 4 4 4 4 4 4 3 3
4 5 5 6 6 6 4 4 6 7 7 2 2 5 6 6 5 5 4 3 2 2 1 1 1 1 1 2 3 3 3 3 4 4 5 5 5 5 5 4 4 4 4 3
2 4 4 6 1 4 4 5 6 5 4 4 5 4 4 5 6 5 4 3 3 2 2 1 1 1 2 2 3 3 4 4 4 5 5 5 5 5 5 4 4 4 4 4
0 3 9 6 2 3 3 6 5 6 5 2 1 2 3 4 5 6 5 3 3 2 2 1 0 1 1 2 3 4 4 5 5 4 4 5 5 4 4 4 4 4 4 4
2 2 6 4 1 1 1 5 3 4 4 3 4 1 5 3 4 3 3 2 2 1 1 1 0 1 2 2 3 4 4 4 4 4 4 4 4 4 3 3 4 4 4 4
3 5 9 6 1 2 2 5 3 3 4 6 7 6 3 2 3 3 3 2 2 2 2 1 0 1 2 1 2 3 3 3 3 3 3 3 4 3 4 4 4 4 4 4
4 4 9 2 4 5 7 3 2 3 4 5 4 2 2 2 2 3 2 2 3 3 1 1 1 2 1 1 2 2 2 3 3 3 3 3 4 4 4 4 4 4 4 5
9 9 5 4 7 5 3 3 3 4 4 4 3 3 2 2 2 2 3 2 2 3 2 1 1 2 1 1 1 2 2 3 3 3 3 3 3 4 4 4 3 3 4 4
6 10 7 8 7 6 5 5 5 4 4 4 4 4 3 3 3 2 2 2 2 3 2 1 1 1 1 0 1 1 1 2 2 3 3 3 3 2 3 3 3 4 4 4
7 9 7 6 7 7 5 5 4 3 4 5 5 4 4 4 4 3 3 2 3 3 3 2 1 1 1 0 0 0 1 2 2 2 3 3 3 2 2 2 3 4 3 3
9 8 6 6 4 3 5 6 5 4 3 3 5 5 5 4 4 4 4 3 3 3 3 3 2 2 1 1 1 0 1 1 1 2 2 2 3 4 4 4 6 7 6 5
9 5 6 6 5 4 5 6 5 6 6 5 4 5 5 4 4 4 4 4 5 5 4 3 2 2 2 1 1 1 1 1 1 2 2 2 3 3 4 5 6 6 7 8
7 4 6 6 6 5 5 5 4 4 4 4 4 4 4 3 3 5 6 6 5 4 3 3 3 3 2 2 1 1 1 2 1 1 2 2 2 3 3 3 5 4 5 7
10 9 9 6 5 4 3 2 3 4 4 3 4 4 5 5 6 6 5 4 4 4 3 3 4 4 2 2 2 2 1 1 1 1 2 2 2 2 2 3 3 4 4 5
7 6 6 6 7 6 5 5 6 7 5 5 5 5 6 6 5 4 4 5 5 5 5 5 5 4 3 3 2 2 2 2 2 1 1 1 1 2 2 2 3 3 3 4
7 8 7 7 8 8 8 8 9 8 7 7 7 5 4 4 4 4 5 5 5 5 5 5 5 3 3 3 3 2 2 2 2 1 1 2 2 2 2 2 3 3 3 4
11 11 10 9 8 8 8 8 8 7 8 7 5 5 5 6 7 6 5 4 3 3 4 4 4 3 3 3 3 2 2 2 2 2 2 2 2 2 2 2 3 3 3 4
9 10 9 9 9 8 8 8 8 7 6 6 6 7 7 7 6 5 4 5 5 6 5 4 5 4 4 4 3 2 2 2 2 2 2 3 2 2 2 2 3 3 3 3
7 7 8 8 7 7 8 7 6 6 6 6 6 6 6 6 5 5 5 6 6 5 4 4 5 4 4 4 4 2 3 3 2 2 2 2 2 2 2 2 3 3 3 3
7 7 7 7 7 7 7 7 7 7 6 7 8 8 7 6 5 5 5 5 5 4 5 6 4 4 4 4 5 3 3 3 3 3 2 2 2 3 2 3 3 3 3 3
5 5 6 6 6 5 5 5 6 7 6 6 6 6 5 5 5 5 6 5 4 6 4 3 3 5 5 5 3 3 3 3 3 3 3 3 3 3 3 3 3 3 3 3
5 5 5 5 6 5 4 4 6 6 7 7 7 7 7 6 5 5 5 4 3 6 5 4 5 7 7 4 3 3 3 4 3 3 3 3 3 3 3 3 3 3 3 3
4 5 4 4 3 4 5 5 4 4 5 5 6 6 5 4 3 3 3 5 6 6 4 5 8 8 7 3 3 3 3 3 3 3 3 3 3 3 3 3 3 3 3 3
4 4 4 4 5 5 5 4 3 3 3 3 3 4 4 3 4 3 3 4 6 6 3 5 7 7 4 3 3 3 3 4 4 3 3 3 3 3 3 3 3 3 3 3
4 4 4 5 4 3 3 4 3 3 3 3 2 2 2 2 3 3 3 3 4 5 3 3 3 4 3 3 3 4 3 3 4 3 4 3 4 4 4 4 4 3 3 3
3 3 2 2 3 3 4 4 4 5 5 5 3 3 3 3 3 3 3 3 3 3 2 2 2 2 3 3 3 3 3 3 3 3 3 4 3 4 4 4 4 3 3 3
Wind_Direction
258 270 264 259 258 226 206 204 209 239 237 250 238 230 221 199 180 170 185 167 90 29 4 2 0 4 9 5 2 7 11 9 359 352 355 356 352 353 350 352 351 353 344 330
299 298 292 273 258 238 231 221 232 256 265 254 242 195 188 195 189 195 210 223 238 292 350 342 340 347 354 354 350 5 12 2 357 2 2 358 358 2 2 358 356 2 357 343
295 314 332 281 240 205 218 214 194 221 242 234 224 206 203 202 200 206 209 212 216 235 245 260 287 304 330 336 350 10 13 7 3 3 3 356 358 6 2 356 357 356 351 347
306 353 271 254 239 197 223 246 224 239 246 218 223 225 214 193 193 205 205 204 208 216 238 268 312 340 353 8 12 13 11 9 5 3 0 354 3 4 355 352 350 343 342 340
97 295 282 292 256 187 203 271 229 227 245 242 82 37 289 218 199 203 202 202 202 204 203 195 350 352 30 27 17 13 7 2 356 354 354 354 357 352 348 349 346 340 335 339
158 258 262 271 284 232 114 289 272 203 214 183 127 188 258 211 188 195 191 179 171 157 127 112 15 62 64 32 19 360 347 344 345 349 351 349 345 343 342 343 337 336 341 339
200 243 268 262 271 101 161 263 282 206 200 180 192 214 230 166 180 183 179 174 153 139 144 175 123 93 75 36 348 328 336 343 349 350 350 348 348 345 343 347 347 346 343 334
181 220 260 222 140 192 228 266 246 220 208 201 216 229 191 178 179 171 171 164 149 142 154 159 113 107 87 329 316 342 350 350 350 348 351 356 356 349 349 352 352 347 342 335
200 222 246 204 213 237 228 240 238 224 229 197 200 212 207 193 188 188 179 166 152 153 152 142 131 137 165 289 335 354 358 347 342 348 353 352 353 351 350 352 350 343 340 333
256 263 253 245 244 250 230 232 241 225 215 191 204 206 203 196 195 193 181 173 158 151 157 191 199 175 194 292 344 354 347 338 339 348 350 347 344 344 348 344 340 336 334 328
254 272 291 272 233 237 238 236 234 224 207 201 195 204 202 202 202 199 192 181 170 174 187 208 201 206 218 215 150 327 327 334 336 337 339 333 328 319 324 313 320 322 314 313
228 229 215 252 252 221 219 228 220 212 220 214 199 204 200 203 202 196 192 183 180 186 196 209 201 212 227 211 181 172 313 326 326 329 329 325 320 322 322 322 328 332 337 335
231 233 222 252 268 232 225 229 216 207 207 211 211 200 193 198 197 191 189 192 196 199 202 205 204 216 227 217 195 193 262 291 305 317 320 320 319 322 325 328 327 332 339 339
236 240 260 250 249 247 233 230 216 216 217 205 198 193 189 191 193 197 204 205 198 191 194 199 208 225 225 206 202 221 253 270 286 286 294 301 305 308 314 322 326 325 327 333
235 221 231 250 259 254 231 203 204 222 218 213 194 191 190 195 207 213 210 193 180 188 200 202 214 229 216 199 205 217 230 254 266 272 278 287 298 305 307 309 309 314 324 330
233 231 230 237 244 242 222 207 213 223 215 210 209 210 208 206 208 207 198 183 186 206 212 212 220 222 202 195 206 220 236 259 273 273 280 290 297 303 303 304 305 309 314 317
220 232 227 230 234 232 223 218 218 219 212 212 215 210 201 196 200 208 209 204 206 214 214 213 220 208 194 193 198 211 223 246 264 276 270 275 285 289 292 294 297 301 302 309
223 230 224 219 222 224 228 224 220 216 214 214 203 189 194 202 213 219 213 202 207 228 229 218 209 196 197 199 198 200 203 221 234 247 261 271 280 282 284 288 293 296 302 311
228 232 233 229 223 217 219 220 219 216 211 195 191 200 207 213 213 207 195 192 206 230 234 214 204 194 202 208 197 195 200 217 237 249 253 273 280 279 280 282 286 290 295 302
233 233 234 233 224 216 218 218 210 208 204 193 192 199 209 214 204 196 196 211 220 219 206 198 198 201 206 207 197 195 201 211 225 239 242 249 264 271 275 282 284 286 288 289
237 235 230 228 227 223 218 208 200 205 202 191 194 204 210 211 200 192 198 230 235 205 198 200 196 201 202 201 195 191 201 213 222 230 237 246 257 264 268 275 280 281 281 282
234 233 233 228 222 227 221 205 199 199 196 198 201 198 195 202 203 207 215 224 216 196 191 195 197 205 206 198 189 194 205 215 223 226 230 237 245 253 257 261 265 270 271 272
234 232 231 227 222 221 216 206 199 195 198 200 197 196 199 202 196 201 227 218 196 196 189 196 205 208 206 191 189 202 211 217 222 225 228 232 235 241 249 256 258 261 261 264
236 231 225 217 199 199 214 219 206 201 199 201 201 196 189 192 211 215 210 193 194 195 197 203 206 209 201 186 193 205 214 221 225 227 229 230 231 236 244 250 255 257 255 259
230 224 214 203 207 216 212 196 182 183 183 194 195 191 189 188 195 198 188 192 194 191 195 204 206 205 196 189 201 210 215 221 223 223 226 229 230 234 241 245 247 251 252 251
222 224 224 221 217 207 192 183 188 191 186 189 194 185 177 171 170 173 176 183 187 188 189 192 193 194 194 201 210 217 221 230 239 234 231 232 234 236 242 246 249 249 249 247
224 223 225 234 224 200 190 190 193 196 192 189 193 186 175 171 168 169 171 175 179 179 180 186 191 195 200 207 214 221 224 226 229 232 233 234 233 234 239 243 246 246 244 244